Nashua, NH

6:52 PM EST on December 14, 2017 (GMT -0500)
Boire

Weather History for KASH - February, 2014

Change the Weather History Date:

Monday, February 24, 2014

  Actual Average Record
Temperature  
Mean Temperature 30 °F -  
Max Temperature 38 °F 38 °F 73 °F (2017)
Min Temperature 21 °F 20 °F -10 °F (2015)
Degree Days  
Heating Degree Days 35    
Moisture  
Dew Point 12 °F    
Average Humidity 50    
Maximum Humidity 80    
Minimum Humidity 27    
Precipitation  
Precipitation 0.00 in - - ()
Sea Level Pressure  
Sea Level Pressure 30.47 in    
Wind  
Wind Speed 9 mph (NW)    
Max Wind Speed 17 mph    
Max Gust Speed 32 mph    
Visibility 10 miles    
Events Snow    
Averages and records for this station are not official NWS values.
T = Trace of Precipitation, MM = Missing Value Source: NWS Daily Summary

Daily Weather History Graph

Daily Weather History Graph

Search for Another Location

Airport or City:

Trip Planner

Search our weather history database for the weather conditions in past years. The results will help you decide how hot, cold, wet, or windy it might be!

Date:

Astronomy

Feb. 24, 2014 Rise Set
Actual Time 6:29 AM EST 5:29 PM EST
Civil Twilight 6:01 AM EST 5:57 PM EST
Nautical Twilight 5:28 AM EST 6:30 PM EST
Astronomical Twilight 4:55 AM EST 7:03 PM EST
Moon 2:29 AM EST (2/24) 12:22 PM EST (2/24)
Length of Visible Light 11h 56m
Length of Day
10h 59m
Waning Crescent, 28% of the Moon is Illuminated
Feb 24
Waning Crescent
Mar 1
New
Mar 8
First Quarter
Mar 16
Full
Mar 23
Last Quarter

Hourly Weather History & Observations

Time (EST) Temp. Windchill Dew Point Humidity Pressure Visibility Wind Dir Wind Speed Gust Speed Precip Events Conditions
12:51 AM 34.9 °F - 26.1 °F 70% 30.51 in 10.0 mi Calm Calm - N/A   Clear
1:51 AM 38.8 °F 35.4 °F 18.1 °F 43% 30.50 in 10.0 mi WNW 4.6 mph - N/A   Clear
2:51 AM 37.9 °F 31.5 °F 6.1 °F 27% 30.48 in 10.0 mi NW 9.2 mph - N/A   Clear
3:51 AM 36.0 °F 29.0 °F 7.2 °F 30% 30.49 in 10.0 mi WNW 9.2 mph 17.3 mph N/A   Clear
4:51 AM 34.9 °F 27.1 °F 8.1 °F 33% 30.51 in 10.0 mi WNW 10.4 mph - N/A   Clear
5:51 AM 32.0 °F 24.2 °F 8.1 °F 37% 30.53 in 10.0 mi NW 9.2 mph - N/A   Clear
6:51 AM 31.1 °F 24.5 °F 10.0 °F 41% 30.54 in 10.0 mi NW 6.9 mph - N/A   Clear
7:51 AM 32.0 °F 25.6 °F 11.1 °F 42% 30.56 in 10.0 mi NW 6.9 mph - N/A   Clear
8:51 AM 32.0 °F 22.5 °F 16.2 °F 52% 30.56 in 10.0 mi WNW 12.7 mph - N/A   Overcast
9:51 AM 30.0 °F 20.5 °F 19.0 °F 64% 30.55 in 10.0 mi North 11.5 mph 20.7 mph 0.00 in   Mostly Cloudy
9:58 AM 30.2 °F 20.2 °F 17.6 °F 60% 29.79 in 10.0 mi NNW 12.7 mph 21.9 mph N/A   Mostly Cloudy
10:51 AM 31.1 °F 21.9 °F 15.1 °F 52% 30.53 in 10.0 mi North 11.5 mph - N/A   Mostly Cloudy
11:51 AM 31.1 °F 20.9 °F 17.1 °F 56% 30.53 in 10.0 mi WNW 13.8 mph 19.6 mph 0.00 in Snow Light Snow
12:51 PM 29.1 °F 17.1 °F 22.1 °F 75% 30.52 in 10.0 mi NW 17.3 mph 32.2 mph 0.00 in Snow Light Snow Showers
12:52 PM 28.4 °F 17.5 °F 21.2 °F 74% 29.76 in 0.5 mi NW 13.8 mph 29.9 mph 0.00 in Snow Light Snow Showers
12:53 PM 28.4 °F 18.0 °F 23.0 °F 80% 29.76 in 10.0 mi NW 12.7 mph 29.9 mph 0.00 in Snow Light Snow Showers
1:51 PM 32.0 °F 21.6 °F 11.1 °F 42% 30.50 in 10.0 mi WNW 15.0 mph 20.7 mph 0.00 in   Mostly Cloudy
2:51 PM 29.1 °F 18.9 °F 12.0 °F 49% 30.52 in 10.0 mi West 12.7 mph 21.9 mph N/A   Mostly Cloudy
3:51 PM 30.0 °F 21.1 °F 8.1 °F 40% 30.53 in 10.0 mi WNW 10.4 mph 19.6 mph 0.00 in   Scattered Clouds
4:51 PM 29.1 °F 20.0 °F 7.2 °F 40% 30.55 in 10.0 mi NW 10.4 mph 20.7 mph N/A   Scattered Clouds
5:51 PM 26.1 °F 14.5 °F 12.0 °F 55% 30.58 in 10.0 mi WNW 13.8 mph 21.9 mph 0.00 in   Scattered Clouds
6:51 PM 26.1 °F 15.0 °F 7.2 °F 45% 30.61 in 10.0 mi WNW 12.7 mph 19.6 mph 0.00 in   Partly Cloudy
7:51 PM 25.2 °F 12.4 °F 6.1 °F 44% 30.63 in 10.0 mi West 16.1 mph 25.3 mph N/A   Clear
8:51 PM 24.1 °F 12.0 °F 5.0 °F 44% 30.66 in 10.0 mi WNW 13.8 mph 23.0 mph N/A   Clear
9:51 PM 23.0 °F 10.6 °F 5.0 °F 46% 30.69 in 10.0 mi NW 13.8 mph 23.0 mph N/A   Clear
10:51 PM 22.1 °F 12.8 °F 6.1 °F 50% 30.70 in 10.0 mi WNW 8.1 mph - N/A   Clear
11:51 PM 21.0 °F - 7.2 °F 55% 30.71 in 10.0 mi Calm Calm - N/A   Clear